Location: Champseau
(45.8333°N, 1.7667°E)
Time: 19:29:07
(UTC+00:00)

X-37B - Pass Details

Date: 03 October 2021
Orbit: 385 x 389 km, 45.0° (Epoch: 17 October)

Event Time Altitude Azimuth Distance (km) Brightness Sun altitude
Exits shadow 03:57:24 27° 148° (SSE) 772 2.2 -20.9°
Drops below altitude 10° 03:59:12 10° 128° (SE) 1,409 3.9 -20.6°
Sets 04:01:20 0° 121° (ESE) 2,262 5.1 -20.2°
